Location: Betzi
(47.2343°N, 9.5260°E)
Time: 22:16:00
(UTC+00:00)

Cosmos 2278 Rocket - Pass Details

Date: 27 May 2022
Orbit: 840 x 846 km, 71.0° (Epoch: 29 June)

Event Time Altitude Azimuth Distance (km) Brightness Sun altitude
Rises 01:22:55 0° 319° (NW) 3,416 5.6 -16.0°
Reaches altitude 10° 01:26:14 10° 299° (WNW) 2,474 4.6 -15.8°
Maximum altitude 01:29:40 17° 262° (W) 2,037 3.8 -15.4°
Enters shadow 01:30:41 16° 249° (WSW) 2,076 3.8 -15.4°
